Location: Curicchi
(45.0167°N, 12.0500°E)
Time: 18:32:48
(UTC+00:00)

STARLINK-73 - Pass Details

Date: 07 June 2020
Orbit: 434 x 435 km, 53.0° (Epoch: 07 July)

Event Time Altitude Azimuth Distance (km) Brightness Sun altitude
Exits shadow 01:09:52 19° 142° (SE) 1,102 4.9 -17.0°
Drops below altitude 10° 01:12:49 10° 85° (E) 1,544 6.4 -16.7°
Enters shadow 02:07:30 -73° 238° (WSW) 12,631 10.4 -11.1°
Maximum altitude 02:47:02 65° 330° (NNW) 485 3.4 -6.2°
